[[{"header":{"parameterUnit":"m.s-1","parameterCategory":2,"la1":30.2991,"la2":30.254,"lo1":-89.0895,"lo2":-89.0444,"dy":0.0017,"dx":0.0017,"nx":28,"ny":28,"refTime":"2024-10-20T09:00:00:Z","depth":"0","parameterNumber":2,"parameterNumberName":"U-component_of_CURRENTS"},"data":[0,0,0,0,0,0,0,0,0,0,0,0,0,0,0,0,0,0,0,0,0,0,0,0,0,0,0,0,0,0,0,0,0,0,0,0,0,0,0,0,0,0,0,0,0,0,0,0,0,0,0,0,0,0,0,0,0,0,-0.2922,-0.2923,0,-0.3037,-0.3038,-0.3039,-0.3011,-0.3009,-0.3007,-0.3005,-0.2934,-0.2934,-0.2933,0,0,0,0,0,0,0,0,0,0,0,0,0,-0.2695,-0.2698,-0.2922,-0.2923,-0.2925,-0.3037,-0.3038,-0.3039,-0.3011,-0.3009,-0.3007,-0.3005,-0.2934,-0.2934,-0.2933,0,0,0,0,0,0,0,0,0,0,0,0,0,-0.2795,-0.27,-0.2921,-0.2928,-0.293,-0.3037,-0.3038,-0.3039,-0.3012,-0.3009,-0.3006,-0.3004,-0.2934,-0.2934,-0.2933,-0.2985,0,0,-0.2932,-0.2932,0,0,0,0,0,0,0,0,-0.279,-0.2803,-0.2925,-0.2928,-0.2931,-0.3011,-0.2932,-0.3014,-0.3012,-0.2976,-0.3005,-0.3002,-0.2947,-0.2946,-0.2969,-0.2982,-0.2979,-0.2932,-0.2932,-0.2932,-0.2932,0,0,0,0,0,0,0,-0.2783,-0.2798,-0.2962,-0.2928,-0.2931,-0.2932,-0.2943,-0.2948,-0.2968,-0.2979,-0.2978,-0.2999,-0.2946,-0.297,-0.2967,-0.2978,-0.2932,-0.2932,-0.2932,-0.2932,-0.3008,-0.3011,0,0,0,0,0,0,-0.2781,-0.2792,-0.2959,-0.2966,-0.2857,-0.2939,-0.295,-0.2984,-0.2972,-0.2971,-0.3002,-0.2998,-0.2972,-0.2967,-0.2964,-0.3008,-0.2932,-0.2931,-0.2931,-0.3006,-0.3009,-0.3011,0,0,0,0,0,0,-0.2776,-0.2795,-0.2954,-0.2884,-0.2905,-0.2946,-0.2984,-0.2988,-0.3002,-0.2993,-0.2986,-0.301,-0.297,-0.2965,-0.2975,-0.3005,-0.2931,-0.2931,-0.3004,-0.3007,-0.301,-0.3106,0,0,0,0,0,0,-0.2769,-0.2793,-0.2805,-0.2885,-0.2909,-0.3017,-0.2987,-0.2992,-0.3022,-0.3017,-0.2998,-0.2989,-0.2967,-0.2976,-0.2974,-0.3003,-0.2931,-0.3001,-0.3005,-0.3009,-0.31,-0.3112,-0.3123,0,0,0,0,0,-0.2761,-0.2792,-0.2805,-0.2825,-0.2928,-0.3019,-0.3031,-0.3046,-0.3025,-0.3045,-0.3033,-0.2989,-0.3001,-0.2978,-0.2976,-0.3005,-0.2999,-0.3004,-0.3009,-0.3095,-0.311,-0.3122,0,0,0,0,0,0,-0.2691,-0.2796,-0.281,-0.2869,-0.2938,-0.3015,-0.3034,-0.3053,-0.3066,-0.3048,-0.3022,-0.3015,-0.3035,-0.3015,-0.299,-0.3041,-0.2992,-0.2997,-0.3058,-0.3072,-0.3083,-0.3085,-0.293,0,0,0,0,0,-0.2688,-0.2737,-0.2836,-0.2877,-0.2915,-0.2975,-0.3008,-0.3032,-0.3065,-0.3067,-0.306,-0.3052,-0.3063,-0.3059,-0.3061,-0.3093,-0.3059,-0.3111,-0.3122,-0.3132,-0.3135,-0.3146,-0.3159,-0.3028,-0.3028,-0.3028,0,0,-0.2668,-0.2734,-0.2757,-0.2866,-0.2914,-0.2995,-0.2986,-0.3049,-0.3104,-0.3057,-0.31,-0.3089,-0.3081,-0.3117,-0.3123,-0.3097,-0.3146,-0.3138,-0.3147,-0.3144,-0.3153,-0.3165,-0.3176,-0.3031,-0.3031,-0.303,0,0,-0.2671,-0.2719,-0.2767,-0.2844,-0.2939,-0.2993,-0.3014,-0.3101,-0.3119,-0.3178,-0.3156,-0.3175,-0.3184,-0.32,-0.3204,-0.3284,-0.3207,-0.327,-0.3328,-0.334,-0.335,-0.3359,-0.3302,-0.3305,-0.3275,-0.3275,-0.3275,0,-0.264,-0.273,-0.2791,-0.2875,-0.2942,-0.2997,-0.3078,-0.3126,-0.3199,-0.3222,-0.3195,-0.324,-0.3235,-0.3288,-0.3315,-0.3311,-0.3269,-0.3274,-0.3354,-0.3362,-0.3369,-0.3309,-0.3311,-0.328,-0.328,-0.3279,-0.3279,0,-0.2693,-0.2775,-0.2813,-0.2941,-0.3016,-0.3096,-0.3192,-0.3242,-0.3266,-0.331,-0.3356,-0.3361,-0.3382,-0.3392,-0.3378,-0.3433,-0.3368,-0.3366,-0.3315,-0.3388,-0.3319,-0.332,-0.3288,-0.3286,-0.3284,-0.3283,0,0,-0.2613,-0.2811,-0.2823,-0.2908,-0.3065,-0.3136,-0.3234,-0.3342,-0.339,-0.3435,-0.3485,-0.3529,-0.3511,-0.3516,-0.35,-0.3516,-0.3534,-0.346,-0.3458,-0.3395,-0.3497,-0.3303,-0.3283,-0.3535,-0.3536,-0.3537,-0.3416,0,-0.2637,-0.2789,-0.289,-0.304,-0.3137,-0.3242,-0.3332,-0.3428,-0.348,-0.3536,-0.3551,-0.3584,-0.3564,-0.3562,-0.3584,-0.3557,-0.3544,-0.3563,-0.3443,-0.3438,-0.3252,-0.3282,-0.3162,-0.3031,-0.3416,-0.3416,-0.3416,0,-0.2656,-0.2771,-0.2904,-0.3116,-0.3164,-0.3251,-0.3397,-0.3488,-0.3583,-0.3613,-0.365,-0.3649,-0.3688,-0.3648,-0.3635,-0.3639,-0.3571,-0.3537,-0.3531,-0.3318,-0.3246,-0.3028,-0.3016,-0.3003,-0.3416,-0.3416,-0.3416,0,-0.2563,-0.2786,-0.2883,-0.2959,-0.3185,-0.3251,-0.3363,-0.3491,-0.356,-0.3643,-0.367,-0.3714,-0.3714,-0.3686,-0.3599,-0.3625,-0.3532,-0.3567,-0.3317,-0.33,-0.3157,-0.3124,-0.3112,-0.3534,-0.3534,-0.3534,-0.3535,0,-0.2555,-0.2644,-0.2846,-0.2906,-0.3039,-0.3207,-0.332,-0.343,-0.3548,-0.3614,-0.3682,-0.3701,-0.3724,-0.3667,-0.3601,-0.3424,-0.3529,-0.3313,-0.3265,-0.318,-0.3153,-0.3099,-0.3134,-0.353,-0.3531,-0.3532,-0.3532,0,-0.2428,-0.2561,-0.2695,-0.2918,-0.2996,-0.3075,-0.3303,-0.338,-0.3497,-0.3575,-0.3596,-0.3685,-0.3606,-0.3542,-0.347,-0.3392,-0.3192,-0.316,-0.3012,-0.2947,-0.2726,-0.2771,-0.2662,-0.2588,-0.2913,-0.2908,-0.2903,0,-0.2383,-0.2423,-0.2647,-0.2741,-0.2842,-0.3001,-0.3114,-0.3309,-0.339,-0.3545,-0.356,-0.3532,-0.3445,-0.3239,-0.3099,-0.2892,-0.2926,-0.2682,-0.2734,-0.2677,-0.2695,-0.274,-0.2693,-0.2578,-0.2571,-0.2566,-0.2561,0,-0.2278,-0.2322,-0.2429,-0.2617,-0.2753,-0.2905,-0.3079,-0.3132,-0.3332,-0.3378,-0.3402,-0.3338,-0.3147,-0.2891,-0.2626,-0.2521,-0.2629,-0.2557,-0.2579,-0.2482,-0.2456,-0.2372,-0.266,-0.2512,-0.2517,-0.252,-0.2523,-0.2525,-0.2179,-0.2198,-0.2327,-0.2502,-0.2664,-0.2786,-0.2833,-0.297,-0.3035,-0.3044,-0.3121,-0.2935,-0.2761,-0.237,-0.2257,-0.2075,-0.2194,-0.2057,-0.2124,-0.2182,-0.2089,-0.2208,-0.1956,-0.1958,-0.1959,-0.1961,-0.1962,0,-0.2063,-0.2103,-0.2238,-0.2423,-0.2543,-0.2668,-0.2795,-0.2761,-0.2739,-0.2712,-0.2631,-0.239,-0.2118,-0.1995,-0.1814,-0.1714,-0.1732,-0.1696,-0.181,-0.179,-0.1954,-0.1917,-0.1547,-0.1547,-0.1547,-0.1547,-0.1547,-0.1547,-0.2013,-0.2029,-0.2094,-0.2252,-0.2389,-0.2434,-0.2454,-0.235,-0.228,-0.2051,-0.1907,-0.1819,-0.177,-0.1836,-0.1688,-0.1601,-0.1617,-0.1527,-0.1583,-0.1792,-0.1835,-0.1876,-0.1851,-0.1473,-0.1473,-0.137,-0.137,-0.137]},{"header":{"parameterUnit":"m.s-1","parameterCategory":2,"la1":30.2991,"la2":30.254,"lo1":-89.0895,"lo2":-89.0444,"dy":0.0017,"dx":0.0017,"nx":28,"ny":28,"refTime":"2024-10-20T09:00:00:Z","depth":"0","parameterNumber":3,"parameterNumberName":"V-component_of_CURRENTS"},"data":[0,0,0,0,0,0,0,0,0,0,0,0,0,0,0,0,0,0,0,0,0,0,0,0,0,0,0,0,0,0,0,0,0,0,0,0,0,0,0,0,0,0,0,0,0,0,0,0,0,0,0,0,0,0,0,0,0,0,-0.0614,-0.0613,0,-0.0515,-0.0514,-0.0513,-0.0446,-0.0446,-0.0445,-0.0445,-0.0346,-0.0344,-0.0342,0,0,0,0,0,0,0,0,0,0,0,0,0,-0.0671,-0.0671,-0.0614,-0.0613,-0.0612,-0.0516,-0.0514,-0.0513,-0.0446,-0.0445,-0.0445,-0.0445,-0.0347,-0.0344,-0.0341,0,0,0,0,0,0,0,0,0,0,0,0,0,-0.0616,-0.0671,-0.0614,-0.0568,-0.0563,-0.0516,-0.0514,-0.0512,-0.0446,-0.0445,-0.0445,-0.0444,-0.0348,-0.0344,-0.0341,-0.0332,0,0,-0.0331,-0.0329,0,0,0,0,0,0,0,0,-0.062,-0.0614,-0.0576,-0.0571,-0.0565,-0.0493,-0.0498,-0.0452,-0.0446,-0.0489,-0.0445,-0.0444,-0.0396,-0.0389,-0.037,-0.0327,-0.0323,-0.033,-0.0328,-0.0327,-0.0326,0,0,0,0,0,0,0,-0.0624,-0.0618,-0.0574,-0.0575,-0.0568,-0.0527,-0.0519,-0.0489,-0.0447,-0.0485,-0.0481,-0.0471,-0.0393,-0.0374,-0.0367,-0.0321,-0.033,-0.0327,-0.0325,-0.0324,-0.0217,-0.0216,0,0,0,0,0,0,-0.0642,-0.0622,-0.0577,-0.0571,-0.0593,-0.0526,-0.0517,-0.0516,-0.0447,-0.0436,-0.0472,-0.0469,-0.038,-0.0371,-0.0364,-0.0357,-0.0327,-0.0324,-0.0322,-0.0218,-0.0217,-0.0216,0,0,0,0,0,0,-0.0644,-0.064,-0.0581,-0.0594,-0.0584,-0.0527,-0.0525,-0.0514,-0.0496,-0.0437,-0.0425,-0.0465,-0.0379,-0.0368,-0.0331,-0.0352,-0.0322,-0.0319,-0.0219,-0.0218,-0.0216,-0.0338,0,0,0,0,0,0,-0.0646,-0.0641,-0.065,-0.0596,-0.0584,-0.0573,-0.0526,-0.0513,-0.0492,-0.0486,-0.0427,-0.0417,-0.0378,-0.0336,-0.0327,-0.0347,-0.0316,-0.022,-0.0218,-0.0217,-0.0335,-0.0342,-0.0347,0,0,0,0,0,-0.0649,-0.0681,-0.0651,-0.0645,-0.0597,-0.0574,-0.0565,-0.052,-0.0492,-0.0498,-0.0441,-0.0419,-0.032,-0.0333,-0.0323,-0.0343,-0.0221,-0.0219,-0.0217,-0.0333,-0.034,-0.0347,0,0,0,0,0,0,-0.072,-0.0675,-0.0642,-0.0659,-0.0622,-0.0564,-0.0569,-0.0528,-0.0487,-0.0481,-0.0415,-0.0402,-0.0372,-0.0331,-0.0347,-0.03,-0.0264,-0.026,-0.0356,-0.0362,-0.0368,-0.0387,-0.0313,0,0,0,0,0,-0.0736,-0.0743,-0.0687,-0.0701,-0.0687,-0.0624,-0.0609,-0.0577,-0.0531,-0.0512,-0.0462,-0.0404,-0.0356,-0.034,-0.0291,-0.0278,-0.0209,-0.0276,-0.0282,-0.0287,-0.0291,-0.0211,-0.0212,-0.021,-0.021,-0.021,0,0,-0.0767,-0.0743,-0.0746,-0.0714,-0.0682,-0.0684,-0.0615,-0.0605,-0.0599,-0.0509,-0.0489,-0.0424,-0.0352,-0.0328,-0.0312,-0.0302,-0.0245,-0.0285,-0.0291,-0.0292,-0.021,-0.021,-0.0211,-0.0209,-0.0209,-0.0209,0,0,-0.0846,-0.081,-0.0845,-0.0821,-0.0782,-0.0738,-0.0738,-0.0679,-0.0647,-0.0614,-0.054,-0.0485,-0.0422,-0.0372,-0.0339,-0.0344,-0.0272,-0.0327,-0.0387,-0.0311,-0.0311,-0.031,-0.0207,-0.0196,-0.0339,-0.0339,-0.034,0,-0.0886,-0.0917,-0.0852,-0.0878,-0.0868,-0.077,-0.08,-0.0754,-0.0686,-0.0661,-0.0626,-0.0498,-0.0443,-0.0399,-0.0396,-0.0363,-0.0294,-0.0379,-0.0322,-0.032,-0.0318,-0.0211,-0.0198,-0.0345,-0.0344,-0.0344,-0.0343,0,-0.0987,-0.1007,-0.1029,-0.1019,-0.0994,-0.1009,-0.093,-0.0899,-0.0835,-0.0779,-0.071,-0.061,-0.0535,-0.0506,-0.0457,-0.0412,-0.0358,-0.0338,-0.0318,-0.0326,-0.0212,-0.0196,-0.0353,-0.0351,-0.0349,-0.0348,0,0,-0.1086,-0.1101,-0.1106,-0.1125,-0.1071,-0.1065,-0.1043,-0.0995,-0.0979,-0.0885,-0.085,-0.0748,-0.0672,-0.0625,-0.0544,-0.0476,-0.0392,-0.041,-0.0404,-0.0331,-0.0196,-0.0125,-0.01,-0.0368,-0.0366,-0.0365,-0.0119,0,-0.1185,-0.128,-0.1238,-0.1296,-0.1333,-0.123,-0.1214,-0.1147,-0.1068,-0.1005,-0.0874,-0.081,-0.0724,-0.0685,-0.0602,-0.0438,-0.0357,-0.0458,-0.0179,-0.017,-0.0126,-0.0082,-0.0032,0.0193,-0.0103,-0.01,-0.0098,0,-0.1293,-0.1342,-0.1435,-0.1438,-0.1438,-0.1442,-0.1382,-0.1355,-0.1232,-0.1168,-0.1065,-0.0947,-0.0812,-0.0745,-0.0475,-0.0543,-0.0384,-0.0255,-0.0242,-0.0125,-0.007,0.0154,0.0234,0.0393,-0.0073,-0.0075,-0.0077,0,-0.1404,-0.1466,-0.1547,-0.1554,-0.1542,-0.1543,-0.1512,-0.1413,-0.1385,-0.1266,-0.1222,-0.1039,-0.0923,-0.0722,-0.0424,-0.0457,-0.0107,-0.0122,0.0098,0.0107,0.0232,0.0248,0.0478,0.0057,0.0056,0.0055,0.0055,0,-0.1525,-0.1584,-0.1612,-0.1659,-0.1723,-0.1658,-0.1679,-0.1618,-0.1526,-0.1482,-0.1316,-0.1204,-0.0912,-0.0664,-0.0435,-0.0085,-0.0104,0.011,0.0175,0.0196,0.0204,0.0414,0.046,0.0065,0.0063,0.0061,0.0059,0,-0.163,-0.1656,-0.1752,-0.178,-0.1786,-0.1826,-0.1794,-0.1798,-0.1697,-0.1628,-0.1591,-0.1306,-0.0955,-0.0635,-0.0248,-0.0079,0.0348,0.0347,0.0371,0.0433,0.072,0.0757,0.1069,0.1179,0.0595,0.0598,0.0601,0,-0.1689,-0.1761,-0.1849,-0.1907,-0.1925,-0.1965,-0.198,-0.1898,-0.1884,-0.166,-0.1625,-0.127,-0.0947,-0.0341,0.0024,0.0453,0.0565,0.0692,0.0618,0.0767,0.0857,0.0873,0.0942,0.0758,0.0762,0.0765,0.0768,0,-0.1796,-0.1832,-0.1915,-0.2049,-0.2105,-0.2147,-0.2155,-0.2168,-0.2032,-0.189,-0.1591,-0.1295,-0.0682,-0.0128,0.0387,0.0622,0.08,0.0765,0.0921,0.1009,0.1044,0.117,0.0579,0.0795,0.0793,0.0791,0.0789,0.0788,-0.1859,-0.195,-0.2068,-0.2191,-0.2257,-0.2308,-0.2322,-0.2253,-0.2147,-0.1839,-0.1546,-0.0952,-0.0302,0.0473,0.0713,0.1147,0.1082,0.1253,0.1294,0.1303,0.1378,0.0853,0.1125,0.1124,0.1123,0.1122,0.1122,0,-0.194,-0.2048,-0.2189,-0.2329,-0.2421,-0.2413,-0.2415,-0.2337,-0.2157,-0.1692,-0.1267,-0.0318,0.0318,0.0867,0.1432,0.1651,0.1675,0.1758,0.1789,0.1839,0.14,0.1373,0.1708,0.1708,0.1708,0.1707,0.1707,0.1707,-0.1992,-0.2152,-0.2249,-0.2445,-0.2522,-0.2573,-0.2559,-0.2315,-0.1967,-0.1213,-0.0509,0.0082,0.08,0.1569,0.2061,0.2104,0.2278,0.2273,0.2366,0.204,0.1995,0.1951,0.1939,0.2387,0.2388,0.2794,0.2798,0.2801]}],[{"header":{"parameterUnit":"m.s-1","parameterCategory":2,"la1":30.2991,"la2":30.254,"lo1":-89.0895,"lo2":-89.0444,"dy":0.0017,"dx":0.0017,"nx":28,"ny":28,"refTime":"2024-10-20T09:00:00:Z","depth":"2","parameterNumber":2,"parameterNumberName":"U-component_of_CURRENTS"},"data":[0,0,0,0,0,0,0,0,0,0,0,0,0,0,0,0,0,0,0,0,0,0,0,0,0,0,0,0,0,0,0,0,0,0,0,0,0,0,0,0,0,0,0,0,0,0,0,0,0,0,0,0,0,0,0,0,0,0,-0.2514,-0.2513,0,-0.2589,-0.2592,-0.2595,-0.2743,-0.2743,-0.2744,-0.2745,-0.267,-0.2668,-0.2665,0,0,0,0,0,0,0,0,0,0,0,0,0,-0.2574,-0.2574,-0.2514,-0.2513,-0.2512,-0.2588,-0.2592,-0.2595,-0.2743,-0.2743,-0.2744,-0.2745,-0.2671,-0.2668,-0.2665,0,0,0,0,0,0,0,0,0,0,0,0,0,-0.2611,-0.2574,-0.2515,-0.2576,-0.2581,-0.2588,-0.2592,-0.2596,-0.2742,-0.2743,-0.2744,-0.2745,-0.2672,-0.2668,-0.2665,-0.262,0,0,-0.2653,-0.2651,0,0,0,0,0,0,0,0,-0.2609,-0.2612,-0.2569,-0.2572,-0.2577,-0.2636,-0.2584,-0.2588,-0.2742,-0.2707,-0.2745,-0.2746,-0.2628,-0.2628,-0.2677,-0.2617,-0.2613,-0.2652,-0.265,-0.2648,-0.2647,0,0,0,0,0,0,0,-0.2606,-0.261,-0.2569,-0.2566,-0.2571,-0.2624,-0.2633,-0.2589,-0.2677,-0.271,-0.2715,-0.2684,-0.2633,-0.2681,-0.2675,-0.2612,-0.2652,-0.2649,-0.2646,-0.2645,-0.2622,-0.2624,0,0,0,0,0,0,-0.2542,-0.2607,-0.2566,-0.2569,-0.2568,-0.262,-0.2631,-0.2636,-0.2681,-0.2683,-0.2683,-0.269,-0.2687,-0.268,-0.2673,-0.271,-0.2648,-0.2645,-0.2642,-0.262,-0.2622,-0.2624,0,0,0,0,0,0,-0.2544,-0.254,-0.2563,-0.2568,-0.2571,-0.2615,-0.2621,-0.2636,-0.2718,-0.2657,-0.2662,-0.2748,-0.2687,-0.2678,-0.2669,-0.2704,-0.2643,-0.2639,-0.2618,-0.2621,-0.2623,-0.2726,0,0,0,0,0,0,-0.2547,-0.2541,-0.2578,-0.2564,-0.2568,-0.2586,-0.2618,-0.2636,-0.2682,-0.2695,-0.2712,-0.2707,-0.2688,-0.2675,-0.2665,-0.2697,-0.2636,-0.2616,-0.2619,-0.2622,-0.272,-0.2732,-0.2741,0,0,0,0,0,-0.2549,-0.2594,-0.258,-0.2576,-0.26,-0.2584,-0.2597,-0.2645,-0.2684,-0.2727,-0.274,-0.2708,-0.2689,-0.2673,-0.2661,-0.2693,-0.2614,-0.2618,-0.2622,-0.2715,-0.2729,-0.2741,0,0,0,0,0,0,-0.2628,-0.2609,-0.2596,-0.263,-0.2602,-0.2601,-0.2646,-0.2662,-0.2718,-0.2748,-0.2714,-0.2708,-0.272,-0.2686,-0.2669,-0.2699,-0.2652,-0.2653,-0.2727,-0.2739,-0.275,-0.2721,-0.2633,0,0,0,0,0,-0.2649,-0.2685,-0.2637,-0.2652,-0.265,-0.2653,-0.267,-0.2692,-0.2699,-0.2734,-0.2745,-0.2746,-0.2723,-0.2716,-0.2704,-0.27,-0.2647,-0.2718,-0.2729,-0.2738,-0.2709,-0.271,-0.2717,-0.2637,-0.2637,-0.2637,0,0,-0.2654,-0.2661,-0.2668,-0.2671,-0.2671,-0.2664,-0.2677,-0.2706,-0.2711,-0.2702,-0.2771,-0.2781,-0.2731,-0.2751,-0.2753,-0.2727,-0.2729,-0.2743,-0.2751,-0.2716,-0.2714,-0.2722,-0.2729,-0.264,-0.2639,-0.2639,0,0,-0.2666,-0.2711,-0.2732,-0.274,-0.2734,-0.272,-0.2724,-0.275,-0.2793,-0.2797,-0.2822,-0.2864,-0.2815,-0.2839,-0.2814,-0.2867,-0.2788,-0.2863,-0.2887,-0.2891,-0.2896,-0.2901,-0.2823,-0.282,-0.2867,-0.2867,-0.2868,0,-0.2671,-0.2701,-0.2727,-0.2755,-0.2743,-0.2737,-0.2727,-0.2759,-0.2789,-0.2812,-0.2818,-0.2839,-0.2851,-0.2846,-0.2896,-0.2892,-0.2839,-0.2844,-0.2903,-0.2907,-0.291,-0.2828,-0.2824,-0.2873,-0.2872,-0.2872,-0.2871,0,-0.271,-0.2726,-0.2742,-0.2758,-0.2757,-0.2765,-0.2748,-0.2835,-0.2852,-0.2837,-0.2869,-0.2894,-0.2899,-0.2935,-0.2922,-0.2965,-0.29,-0.292,-0.2869,-0.2924,-0.2834,-0.2828,-0.2881,-0.2879,-0.2877,-0.2876,0,0,-0.268,-0.2751,-0.275,-0.2726,-0.2773,-0.2735,-0.2814,-0.2811,-0.2839,-0.2876,-0.2893,-0.292,-0.2943,-0.2922,-0.2953,-0.2977,-0.2997,-0.2962,-0.296,-0.2876,-0.2925,-0.2844,-0.2827,-0.3024,-0.3024,-0.3024,-0.2846,0,-0.267,-0.2697,-0.2749,-0.2702,-0.2676,-0.2757,-0.278,-0.2807,-0.2837,-0.2885,-0.2907,-0.2903,-0.2916,-0.2948,-0.2974,-0.3004,-0.2985,-0.3037,-0.2888,-0.2881,-0.2799,-0.2821,-0.2637,-0.2461,-0.2838,-0.2837,-0.2836,0,-0.2692,-0.2674,-0.2668,-0.2633,-0.2632,-0.2636,-0.2696,-0.2711,-0.2803,-0.2837,-0.2874,-0.2882,-0.2931,-0.295,-0.293,-0.2953,-0.2933,-0.2934,-0.2928,-0.2803,-0.2788,-0.2472,-0.2433,-0.2824,-0.2825,-0.2826,-0.2826,0,-0.2629,-0.2608,-0.2586,-0.2594,-0.258,-0.2629,-0.2629,-0.2712,-0.2748,-0.2819,-0.2858,-0.2858,-0.2877,-0.2869,-0.288,-0.2907,-0.2833,-0.2876,-0.2744,-0.2734,-0.252,-0.2493,-0.2832,-0.2832,-0.2832,-0.2833,-0.2833,0,-0.2623,-0.258,-0.2555,-0.2548,-0.2486,-0.2511,-0.2526,-0.2595,-0.2698,-0.27,-0.2789,-0.2806,-0.2865,-0.285,-0.2846,-0.2743,-0.2785,-0.2716,-0.2693,-0.2549,-0.2527,-0.2805,-0.2805,-0.2826,-0.2827,-0.2829,-0.283,0,-0.2599,-0.2605,-0.2534,-0.2493,-0.2476,-0.2432,-0.2484,-0.2488,-0.2601,-0.2654,-0.2682,-0.2766,-0.272,-0.2729,-0.2712,-0.2674,-0.2622,-0.2569,-0.2356,-0.2313,-0.2515,-0.2522,-0.2394,-0.239,-0.2386,-0.2383,-0.2381,0,-0.2599,-0.2577,-0.2498,-0.243,-0.2422,-0.238,-0.2357,-0.2445,-0.2469,-0.2603,-0.2598,-0.2629,-0.2587,-0.2491,-0.2448,-0.2349,-0.247,-0.2134,-0.2189,-0.2484,-0.2474,-0.2487,-0.2498,-0.1919,-0.1913,-0.1908,-0.1904,0,-0.2543,-0.2556,-0.251,-0.2382,-0.231,-0.2215,-0.2207,-0.2248,-0.2337,-0.2392,-0.2412,-0.2413,-0.2345,-0.2176,-0.209,-0.2032,-0.215,-0.203,-0.238,-0.2089,-0.2031,-0.2025,-0.2052,-0.186,-0.1865,-0.1868,-0.187,-0.1872,-0.2498,-0.2473,-0.2421,-0.229,-0.2177,-0.2032,-0.1974,-0.1996,-0.2001,-0.2057,-0.2145,-0.2068,-0.2066,-0.1833,-0.1737,-0.1684,-0.1843,-0.1783,-0.18,-0.1822,-0.1829,-0.1773,-0.1548,-0.155,-0.1552,-0.1554,-0.1556,0,-0.2343,-0.2364,-0.2292,-0.2103,-0.1918,-0.1903,-0.1825,-0.1769,-0.1722,-0.1767,-0.1765,-0.159,-0.1469,-0.1484,-0.1332,-0.1312,-0.1322,-0.1266,-0.1282,-0.1325,-0.1364,-0.1352,-0.0941,-0.0939,-0.0938,-0.0936,0,0,-0.2254,-0.218,-0.217,-0.1848,-0.1727,-0.1467,-0.1399,-0.1371,-0.1377,-0.1313,-0.128,-0.1372,-0.1419,-0.1172,-0.1121,-0.1005,-0.1155,-0.0954,-0.1444,-0.1504,-0.1541,-0.1653,-0.1681,0,0,0,0,0]},{"header":{"parameterUnit":"m.s-1","parameterCategory":2,"la1":30.2991,"la2":30.254,"lo1":-89.0895,"lo2":-89.0444,"dy":0.0017,"dx":0.0017,"nx":28,"ny":28,"refTime":"2024-10-20T09:00:00:Z","depth":"2","parameterNumber":3,"parameterNumberName":"V-component_of_CURRENTS"},"data":[0,0,0,0,0,0,0,0,0,0,0,0,0,0,0,0,0,0,0,0,0,0,0,0,0,0,0,0,0,0,0,0,0,0,0,0,0,0,0,0,0,0,0,0,0,0,0,0,0,0,0,0,0,0,0,0,0,0,0.0048,0.0047,0,0.0129,0.0131,0.0133,0.0266,0.0267,0.0268,0.0269,0.039,0.0392,0.0394,0,0,0,0,0,0,0,0,0,0,0,0,0,0.0095,0.0094,0.0048,0.0047,0.0047,0.0129,0.0131,0.0134,0.0266,0.0267,0.0268,0.0269,0.0389,0.0392,0.0395,0,0,0,0,0,0,0,0,0,0,0,0,0,0.0129,0.0094,0.0048,0.0112,0.0117,0.0128,0.0131,0.0134,0.0265,0.0267,0.0269,0.027,0.0388,0.0392,0.0395,0.0383,0,0,0.0405,0.0406,0,0,0,0,0,0,0,0,0.0126,0.0129,0.0103,0.0107,0.0113,0.0176,0.0191,0.0214,0.0265,0.0225,0.0269,0.0271,0.0311,0.0321,0.0353,0.0388,0.0394,0.0405,0.0407,0.0409,0.041,0,0,0,0,0,0,0,0.0124,0.0126,0.0095,0.0102,0.0108,0.0165,0.0173,0.0198,0.027,0.0228,0.0234,0.022,0.0317,0.035,0.0357,0.0395,0.0405,0.0408,0.041,0.0412,0.0492,0.0492,0,0,0,0,0,0,0.0077,0.0123,0.0092,0.0096,0.0107,0.0162,0.0171,0.0166,0.0269,0.0282,0.0218,0.0225,0.0343,0.0353,0.0361,0.039,0.0409,0.0412,0.0414,0.0491,0.0492,0.0492,0,0,0,0,0,0,0.0078,0.0074,0.0089,0.01,0.0103,0.0157,0.0152,0.0167,0.0212,0.0258,0.0275,0.0247,0.0345,0.0357,0.0391,0.0394,0.0413,0.0416,0.0491,0.0491,0.0492,0.0423,0,0,0,0,0,0,0.008,0.0075,0.0073,0.0096,0.01,0.0087,0.0149,0.0167,0.0192,0.0203,0.0288,0.0301,0.0347,0.0386,0.0395,0.0399,0.0419,0.0491,0.0491,0.0492,0.0425,0.0421,0.0417,0,0,0,0,0,0.0081,0.0068,0.0073,0.0069,0.0091,0.0084,0.0094,0.0148,0.0191,0.02,0.0264,0.0299,0.0395,0.0388,0.0398,0.0404,0.0491,0.0491,0.0492,0.0427,0.0421,0.0417,0,0,0,0,0,0,0.0089,0.0078,0.0086,0.0071,0.0067,0.0101,0.0109,0.0143,0.0204,0.0227,0.0292,0.0308,0.0347,0.0378,0.0369,0.043,0.0452,0.0454,0.0399,0.0394,0.039,0.0363,0.0422,0,0,0,0,0,0.008,0.0067,0.0061,0.0044,0.0041,0.0077,0.0087,0.0118,0.0157,0.0189,0.025,0.0311,0.0353,0.0374,0.0422,0.0438,0.0463,0.0452,0.0448,0.0444,0.043,0.0484,0.0483,0.0493,0.0493,0.0493,0,0,0.0068,0.0062,0.0052,0.0043,0.0054,0.0039,0.0093,0.0098,0.0099,0.0187,0.0234,0.03,0.0356,0.0391,0.041,0.0417,0.045,0.0445,0.0441,0.0429,0.0484,0.0483,0.0482,0.0493,0.0493,0.0493,0,0,0.0016,0.0039,0.0001,0.0004,-0.0001,0.0019,0.0014,0.0053,0.0091,0.0111,0.0196,0.0265,0.0309,0.0376,0.0403,0.0401,0.0433,0.0412,0.0363,0.0415,0.0414,0.0414,0.042,0.0421,0.0404,0.0404,0.0404,0,0.0003,-0.0037,-0.0012,-0.004,-0.0046,0.0002,-0.0032,0.0002,0.0056,0.0083,0.0111,0.0238,0.0303,0.0354,0.0363,0.0393,0.0402,0.0373,0.0408,0.0409,0.041,0.0416,0.0418,0.0401,0.0401,0.0401,0.0402,0,-0.0077,-0.0098,-0.0116,-0.0137,-0.0136,-0.0151,-0.0125,-0.0081,-0.0035,-0.0003,0.0066,0.0163,0.0238,0.0276,0.0312,0.0359,0.0355,0.0401,0.0415,0.0404,0.0412,0.0415,0.0396,0.0397,0.0398,0.0399,0,0,-0.0137,-0.0171,-0.0177,-0.0199,-0.0179,-0.0195,-0.0174,-0.0156,-0.0137,-0.0064,-0.0037,0.0066,0.0138,0.0175,0.0258,0.0306,0.0332,0.0339,0.0344,0.0332,0.0399,0.0448,0.0456,0.0374,0.0375,0.0375,0.0391,0,-0.0211,-0.0302,-0.0281,-0.0339,-0.0377,-0.0298,-0.0295,-0.0255,-0.0202,-0.0151,-0.0042,0.0012,0.0087,0.0135,0.0194,0.0309,0.0339,0.032,0.0421,0.0423,0.046,0.0463,0.0437,0.0455,0.0395,0.0395,0.0396,0,-0.0299,-0.0344,-0.0437,-0.0444,-0.045,-0.0458,-0.0413,-0.0403,-0.0312,-0.0267,-0.018,-0.0094,0.0009,0.0073,0.022,0.0195,0.0279,0.0356,0.036,0.0432,0.048,0.0463,0.0463,0.0401,0.0401,0.04,0.04,0,-0.0388,-0.0441,-0.0524,-0.0527,-0.0533,-0.0523,-0.0503,-0.0434,-0.0422,-0.0328,-0.0297,-0.0177,-0.0098,0.0017,0.0196,0.0197,0.0345,0.0377,0.0488,0.049,0.0503,0.0507,0.0463,0.0463,0.0463,0.0463,0.0463,0,-0.0477,-0.0531,-0.0568,-0.0606,-0.0657,-0.0619,-0.0635,-0.0579,-0.0516,-0.0508,-0.0367,-0.0312,-0.0107,0.0019,0.0154,0.0331,0.0316,0.0471,0.0508,0.0477,0.0478,0.0469,0.0469,0.0463,0.0463,0.0463,0.0463,0,-0.0577,-0.0604,-0.0687,-0.071,-0.071,-0.0746,-0.0718,-0.0715,-0.0649,-0.062,-0.0592,-0.0417,-0.0243,-0.0045,0.0167,0.029,0.0452,0.0518,0.0448,0.0479,0.0554,0.055,0.0612,0.0614,0.0616,0.0617,0.0618,0,-0.0642,-0.071,-0.0778,-0.0809,-0.0817,-0.0845,-0.0847,-0.0789,-0.0779,-0.0679,-0.0665,-0.0483,-0.0325,-0.0002,0.0244,0.0474,0.0493,0.0579,0.0603,0.0544,0.0574,0.0567,0.0562,0.057,0.0571,0.0571,0.0572,0,-0.0758,-0.079,-0.0859,-0.0924,-0.0946,-0.0969,-0.0962,-0.0979,-0.0905,-0.0853,-0.0736,-0.0597,-0.0266,0.0028,0.0346,0.0478,0.0542,0.06,0.0571,0.0552,0.0511,0.0538,0.0533,0.0577,0.0577,0.0576,0.0576,0.0576,-0.0829,-0.0905,-0.0984,-0.1035,-0.1056,-0.1067,-0.1086,-0.1062,-0.1037,-0.0927,-0.0784,-0.0525,-0.026,0.0232,0.0427,0.0618,0.0619,0.0672,0.0667,0.0662,0.0671,0.0638,0.0725,0.0725,0.0725,0.0725,0.0726,0,-0.0906,-0.0991,-0.1065,-0.1115,-0.1131,-0.1121,-0.1139,-0.1138,-0.1106,-0.092,-0.0754,-0.0403,-0.0053,0.0224,0.0533,0.0707,0.0681,0.0728,0.0659,0.0654,0.0649,0.0654,0.0705,0.0705,0.0705,0.0706,0,0,-0.0945,-0.1062,-0.1103,-0.1156,-0.1175,-0.119,-0.1203,-0.1197,-0.1084,-0.0901,-0.066,-0.0346,-0.0004,0.0209,0.0414,0.057,0.0561,0.058,0.058,0.0467,0.0459,0.0603,0.0604,0,0,0,0,0]}],[{"header":{"parameterUnit":"m.s-1","parameterCategory":2,"la1":30.2991,"la2":30.254,"lo1":-89.0895,"lo2":-89.0444,"dy":0.0017,"dx":0.0017,"nx":28,"ny":28,"refTime":"2024-10-20T09:00:00:Z","depth":"4","parameterNumber":2,"parameterNumberName":"U-component_of_CURRENTS"},"data":[0,0,0,0,0,0,0,0,0,0,0,0,0,0,0,0,0,0,0,0,0,0,0,0,0,0,0,0,0,0,0,0,0,0,0,0,0,0,0,0,0,0,0,0,0,0,0,0,0,0,0,0,0,0,0,0,0,0,-0.1157,-0.1158,0,-0.1235,-0.1235,-0.1236,-0.1268,-0.1268,-0.1267,-0.1267,-0.1339,-0.1341,-0.1343,0,0,0,0,0,0,0,0,0,0,0,0,0,-0.1048,-0.105,-0.1157,-0.1158,-0.1159,-0.1234,-0.1235,-0.1237,-0.1268,-0.1268,-0.1267,-0.1267,-0.1338,-0.134,-0.1343,0,0,0,0,0,0,0,0,0,0,0,0,0,-0.1107,-0.105,-0.1157,-0.1184,-0.1187,-0.1234,-0.1236,-0.1237,-0.1268,-0.1268,-0.1267,-0.1267,-0.1337,-0.134,-0.1343,-0.1367,0,0,-0.1353,-0.1354,0,0,0,0,0,0,0,0,-0.1104,-0.1111,-0.1179,-0.1182,-0.1186,-0.1241,-0.1223,-0.128,-0.1268,-0.1237,-0.1267,-0.1267,-0.1306,-0.1311,-0.1326,-0.137,-0.1373,-0.1353,-0.1355,-0.1356,-0.1357,0,0,0,0,0,0,0,-0.11,-0.1108,-0.1187,-0.118,-0.1184,-0.1196,-0.1204,-0.1234,-0.1271,-0.124,-0.1242,-0.1251,-0.1308,-0.1323,-0.1328,-0.1374,-0.1353,-0.1355,-0.1357,-0.1359,-0.1482,-0.1483,0,0,0,0,0,0,-0.1091,-0.1104,-0.1185,-0.119,-0.1144,-0.1198,-0.1207,-0.1224,-0.1271,-0.1279,-0.1251,-0.1252,-0.1318,-0.1325,-0.1331,-0.1419,-0.1356,-0.1359,-0.1361,-0.148,-0.1482,-0.1484,0,0,0,0,0,0,-0.1088,-0.1097,-0.1182,-0.1148,-0.116,-0.12,-0.1218,-0.1225,-0.1258,-0.128,-0.1287,-0.1279,-0.1318,-0.1327,-0.1374,-0.142,-0.136,-0.1363,-0.1479,-0.1481,-0.1483,-0.1558,0,0,0,0,0,0,-0.1085,-0.1096,-0.1107,-0.1148,-0.1162,-0.1222,-0.1219,-0.1227,-0.1263,-0.1266,-0.1306,-0.1311,-0.1319,-0.1369,-0.1377,-0.1423,-0.1365,-0.1477,-0.148,-0.1482,-0.1554,-0.1563,-0.157,0,0,0,0,0,-0.1081,-0.1093,-0.1107,-0.1117,-0.1175,-0.1223,-0.1232,-0.1258,-0.1265,-0.1286,-0.1312,-0.1311,-0.1391,-0.1373,-0.1382,-0.143,-0.1476,-0.1479,-0.1482,-0.155,-0.1561,-0.157,0,0,0,0,0,0,-0.1053,-0.1099,-0.1115,-0.1141,-0.1185,-0.1228,-0.1249,-0.1271,-0.131,-0.1315,-0.1332,-0.134,-0.1395,-0.14,-0.1379,-0.147,-0.1433,-0.1438,-0.1482,-0.1492,-0.15,-0.1486,-0.1368,0,0,0,0,0,-0.1052,-0.1073,-0.1124,-0.1147,-0.1171,-0.1215,-0.1239,-0.1264,-0.1301,-0.1319,-0.1353,-0.1383,-0.1413,-0.1442,-0.1463,-0.1522,-0.1512,-0.1556,-0.1564,-0.1571,-0.1565,-0.159,-0.16,-0.1494,-0.1494,-0.1494,0,0,-0.1046,-0.1075,-0.1087,-0.1143,-0.1179,-0.1225,-0.123,-0.1277,-0.1324,-0.1321,-0.1395,-0.1411,-0.1431,-0.149,-0.1517,-0.1505,-0.1599,-0.1575,-0.1581,-0.1571,-0.1594,-0.1604,-0.1613,-0.1496,-0.1496,-0.1496,0,0,-0.1039,-0.1078,-0.1091,-0.1143,-0.1202,-0.1237,-0.1256,-0.132,-0.1357,-0.1425,-0.1431,-0.1469,-0.1534,-0.1554,-0.1571,-0.1636,-0.1632,-0.1656,-0.1702,-0.1728,-0.1737,-0.1744,-0.1756,-0.1764,-0.1671,-0.1672,-0.1672,0,-0.1029,-0.1071,-0.1104,-0.1147,-0.1197,-0.1247,-0.1294,-0.1344,-0.1417,-0.1451,-0.1457,-0.1543,-0.156,-0.1622,-0.1647,-0.1656,-0.1666,-0.1667,-0.1739,-0.1746,-0.1752,-0.1762,-0.177,-0.1676,-0.1675,-0.1675,-0.1674,0,-0.1046,-0.1094,-0.1116,-0.1189,-0.1235,-0.1298,-0.1369,-0.1422,-0.1473,-0.1521,-0.1598,-0.1626,-0.1672,-0.1695,-0.1696,-0.176,-0.1751,-0.1738,-0.1714,-0.1767,-0.1775,-0.1782,-0.1681,-0.168,-0.1679,-0.1678,0,0,-0.1001,-0.1106,-0.1121,-0.1171,-0.1279,-0.132,-0.1398,-0.1484,-0.1544,-0.1614,-0.1684,-0.1741,-0.1756,-0.1773,-0.1788,-0.1819,-0.1877,-0.181,-0.1809,-0.182,-0.1936,-0.1791,-0.1784,-0.1888,-0.189,-0.1891,-0.1927,0,-0.1017,-0.1095,-0.115,-0.1246,-0.1299,-0.1383,-0.1459,-0.1538,-0.1611,-0.1693,-0.1732,-0.1802,-0.1791,-0.1824,-0.1854,-0.1869,-0.1897,-0.1867,-0.1882,-0.1882,-0.1745,-0.1787,-0.1895,-0.1932,-0.1933,-0.1934,-0.1935,0,-0.102,-0.1082,-0.1166,-0.1291,-0.1325,-0.1389,-0.1515,-0.1593,-0.1703,-0.176,-0.1823,-0.186,-0.1918,-0.1897,-0.195,-0.1939,-0.1941,-0.1946,-0.1947,-0.1784,-0.1748,-0.1864,-0.1946,-0.1945,-0.1945,-0.1944,-0.1943,0,-0.097,-0.1095,-0.1164,-0.1218,-0.1358,-0.141,-0.1489,-0.1607,-0.1685,-0.1799,-0.1856,-0.1926,-0.1968,-0.1988,-0.1993,-0.1988,-0.2035,-0.2025,-0.1894,-0.1884,-0.1971,-0.1963,-0.2052,-0.2052,-0.2052,-0.2051,-0.2051,0,-0.0966,-0.1023,-0.1152,-0.1204,-0.1295,-0.1397,-0.1508,-0.1589,-0.1718,-0.1802,-0.1886,-0.1934,-0.1996,-0.2027,-0.202,-0.1967,-0.2055,-0.1896,-0.1882,-0.2003,-0.1998,-0.1976,-0.1967,-0.2053,-0.2053,-0.2052,-0.2052,0,-0.0875,-0.0973,-0.1058,-0.1216,-0.127,-0.1328,-0.1506,-0.1586,-0.1714,-0.1817,-0.1854,-0.1959,-0.1985,-0.2022,-0.205,-0.1983,-0.1958,-0.1916,-0.2044,-0.2037,-0.1788,-0.1783,-0.1777,-0.1772,-0.1768,-0.1765,-0.1762,0,-0.0834,-0.0865,-0.1039,-0.1093,-0.1166,-0.1285,-0.1377,-0.155,-0.163,-0.1805,-0.1832,-0.1913,-0.1959,-0.188,-0.1924,-0.1897,-0.1869,-0.1849,-0.1811,-0.1772,-0.176,-0.1761,-0.1761,-0.1755,-0.1754,-0.1753,-0.1752,0,-0.0732,-0.0795,-0.0848,-0.0981,-0.1084,-0.1215,-0.135,-0.1404,-0.1596,-0.1727,-0.1761,-0.1771,-0.1792,-0.1783,-0.1772,-0.1752,-0.1859,-0.1806,-0.1814,-0.1778,-0.1746,-0.1738,-0.1743,-0.1738,-0.174,-0.1741,-0.1742,0,-0.0641,-0.0625,-0.0716,-0.0816,-0.0963,-0.1097,-0.1202,-0.1307,-0.1412,-0.161,-0.1604,-0.1685,-0.1771,-0.1706,-0.1696,-0.1662,-0.1634,-0.1577,-0.1597,-0.1614,-0.1538,-0.1472,-0.1363,0,0,0,0,0,-0.056,-0.0508,-0.0563,-0.0691,-0.0858,-0.0962,-0.1162,-0.1275,-0.1462,-0.1445,-0.1527,-0.1536,-0.1523,-0.1553,-0.148,-0.1612,-0.1636,-0.1521,-0.1581,-0.1658,-0.1675,-0.1598,0,0,0,0,0,0,-0.0486,-0.0487,-0.0483,-0.0582,-0.0666,-0.0853,-0.0982,-0.1124,-0.1131,-0.1301,-0.1296,-0.1412,-0.1412,-0.152,-0.143,-0.1442,-0.1443,-0.1575,-0.157,-0.1649,-0.1664,-0.1677,-0.1604,0,0,0,0,0]},{"header":{"parameterUnit":"m.s-1","parameterCategory":2,"la1":30.2991,"la2":30.254,"lo1":-89.0895,"lo2":-89.0444,"dy":0.0017,"dx":0.0017,"nx":28,"ny":28,"refTime":"2024-10-20T09:00:00:Z","depth":"4","parameterNumber":3,"parameterNumberName":"V-component_of_CURRENTS"},"data":[0,0,0,0,0,0,0,0,0,0,0,0,0,0,0,0,0,0,0,0,0,0,0,0,0,0,0,0,0,0,0,0,0,0,0,0,0,0,0,0,0,0,0,0,0,0,0,0,0,0,0,0,0,0,0,0,0,0,-0.0206,-0.0206,0,-0.0192,-0.0192,-0.0192,-0.0162,-0.0162,-0.0161,-0.0161,-0.0078,-0.0077,-0.0075,0,0,0,0,0,0,0,0,0,0,0,0,0,-0.0178,-0.0179,-0.0206,-0.0206,-0.0206,-0.0192,-0.0192,-0.0192,-0.0162,-0.0162,-0.0161,-0.016,-0.0079,-0.0077,-0.0075,0,0,0,0,0,0,0,0,0,0,0,0,0,-0.018,-0.018,-0.0206,-0.019,-0.0188,-0.0192,-0.0192,-0.0192,-0.0163,-0.0162,-0.0161,-0.016,-0.008,-0.0077,-0.0075,-0.0078,0,0,-0.0067,-0.0066,0,0,0,0,0,0,0,0,-0.018,-0.0181,-0.0192,-0.0191,-0.0189,-0.0178,-0.0152,-0.015,-0.0163,-0.0172,-0.0161,-0.016,-0.0106,-0.0101,-0.0102,-0.0074,-0.007,-0.0067,-0.0066,-0.0065,-0.0064,0,0,0,0,0,0,0,-0.018,-0.0182,-0.0201,-0.0192,-0.019,-0.0173,-0.0172,-0.0152,-0.0143,-0.0171,-0.0169,-0.0168,-0.0105,-0.0104,-0.0099,-0.0069,-0.0067,-0.0065,-0.0063,-0.0062,-0.0017,-0.0017,0,0,0,0,0,0,-0.0185,-0.0182,-0.0201,-0.02,-0.0182,-0.0174,-0.0173,-0.0182,-0.0145,-0.0139,-0.0169,-0.0167,-0.0109,-0.0102,-0.0096,-0.0073,-0.0065,-0.0062,-0.0061,-0.0017,-0.0017,-0.0017,0,0,0,0,0,0,-0.0184,-0.0187,-0.0202,-0.019,-0.019,-0.0176,-0.0186,-0.0183,-0.0178,-0.0143,-0.0136,-0.0167,-0.0108,-0.01,-0.0075,-0.007,-0.0061,-0.0059,-0.0016,-0.0017,-0.0017,-0.0042,0,0,0,0,0,0,-0.0184,-0.0187,-0.0196,-0.0191,-0.0191,-0.0208,-0.0187,-0.0183,-0.0179,-0.0176,-0.014,-0.0131,-0.0107,-0.0079,-0.0073,-0.0067,-0.0057,-0.0016,-0.0017,-0.0017,-0.0041,-0.0043,-0.0045,0,0,0,0,0,-0.0183,-0.0203,-0.0197,-0.0199,-0.0205,-0.0208,-0.0207,-0.0193,-0.018,-0.0185,-0.0155,-0.0132,-0.0077,-0.0077,-0.007,-0.0063,-0.0016,-0.0016,-0.0017,-0.004,-0.0043,-0.0045,0,0,0,0,0,0,-0.0194,-0.0202,-0.0195,-0.0216,-0.0212,-0.0203,-0.0209,-0.0196,-0.0179,-0.0172,-0.0135,-0.0125,-0.0105,-0.0084,-0.0084,-0.0053,-0.0043,-0.0042,-0.0063,-0.0066,-0.0068,-0.0076,-0.0055,0,0,0,0,0,-0.0202,-0.0221,-0.0217,-0.0232,-0.0233,-0.022,-0.0219,-0.021,-0.0194,-0.0186,-0.0158,-0.0129,-0.0104,-0.0084,-0.0066,-0.0045,-0.0013,-0.0037,-0.0039,-0.0041,-0.0044,0.0016,0.0019,-0.0019,-0.0019,-0.0019,0,0,-0.0211,-0.0217,-0.0227,-0.0236,-0.0232,-0.024,-0.0218,-0.0221,-0.0218,-0.0179,-0.0165,-0.0139,-0.0104,-0.0083,-0.0071,-0.0061,-0.0016,-0.0042,-0.0044,-0.0046,0.0016,0.002,0.0023,-0.002,-0.002,-0.002,0,0,-0.0238,-0.0242,-0.0265,-0.0267,-0.0267,-0.0257,-0.0259,-0.0249,-0.0234,-0.0221,-0.0189,-0.0162,-0.0128,-0.0098,-0.0078,-0.0082,-0.0036,-0.0074,-0.0081,-0.0023,-0.0019,-0.0015,0.0024,0.0032,-0.0067,-0.0067,-0.0067,0,-0.0242,-0.0275,-0.027,-0.029,-0.0293,-0.0267,-0.0283,-0.0267,-0.0246,-0.0231,-0.022,-0.0161,-0.0136,-0.0094,-0.0098,-0.0085,-0.0048,-0.0072,-0.0024,-0.0019,-0.0015,0.0024,0.0033,-0.0068,-0.0068,-0.0068,-0.0068,0,-0.0288,-0.0309,-0.0322,-0.0337,-0.0338,-0.0351,-0.0327,-0.0317,-0.0293,-0.0268,-0.0228,-0.0187,-0.0149,-0.0136,-0.0118,-0.0073,-0.0057,-0.0039,-0.0015,-0.0012,0.0028,0.0038,-0.007,-0.007,-0.0069,-0.0069,0,0,-0.0298,-0.0347,-0.0349,-0.0365,-0.0366,-0.037,-0.0361,-0.0342,-0.0328,-0.0288,-0.0261,-0.0215,-0.0182,-0.0158,-0.0121,-0.007,-0.0014,-0.0042,-0.0038,-0.0001,0.0111,0.0096,0.0105,0.0023,0.0025,0.0026,0.0123,0,-0.0329,-0.0392,-0.0395,-0.0426,-0.0452,-0.0426,-0.0419,-0.0393,-0.0358,-0.0324,-0.0256,-0.022,-0.0189,-0.0168,-0.0111,-0.004,0.0012,-0.0043,0.0099,0.0103,0.0093,0.0116,0.0032,0.0131,0.0133,0.0135,0.0136,0,-0.0361,-0.0402,-0.046,-0.048,-0.0484,-0.0493,-0.0475,-0.0461,-0.0401,-0.0372,-0.0312,-0.0256,-0.018,-0.0156,-0.0015,-0.0046,0.0024,0.0083,0.0089,0.0091,0.0106,0.0129,0.0154,0.0153,0.0151,0.015,0.0149,0,-0.0383,-0.0431,-0.0484,-0.0496,-0.0519,-0.0526,-0.0521,-0.0481,-0.0466,-0.0398,-0.0377,-0.027,-0.0216,-0.0105,0.0012,0.0007,0.0168,0.0178,0.0233,0.0233,0.0228,0.0223,0.0279,0.0279,0.0278,0.0278,0.0278,0,-0.0414,-0.0444,-0.0504,-0.0535,-0.057,-0.0562,-0.0574,-0.055,-0.0514,-0.0493,-0.0402,-0.0356,-0.0197,-0.0087,0.0016,0.0154,0.0178,0.0235,0.0263,0.0213,0.0205,0.0235,0.0228,0.0282,0.0281,0.028,0.028,0,-0.0425,-0.047,-0.0529,-0.058,-0.0591,-0.0613,-0.0627,-0.063,-0.0587,-0.0557,-0.0536,-0.0406,-0.0258,-0.0106,0.0079,0.0153,0.0285,0.0326,0.0252,0.0273,0.0308,0.0299,0.0399,0.0399,0.04,0.04,0.04,0,-0.0436,-0.0479,-0.057,-0.0609,-0.0637,-0.067,-0.0694,-0.0673,-0.0672,-0.0586,-0.057,-0.0423,-0.0325,-0.0067,0.0084,0.0288,0.031,0.0371,0.0346,0.0306,0.0324,0.0314,0.0305,0.0401,0.0401,0.0401,0.0401,0,-0.0445,-0.049,-0.0549,-0.0647,-0.0695,-0.0744,-0.077,-0.0776,-0.0735,-0.0699,-0.0579,-0.0433,-0.0264,-0.0065,0.0097,0.0238,0.0328,0.0375,0.0375,0.0353,0.031,0.0324,0.0315,0.0402,0.0402,0.0402,0.0402,0,-0.0438,-0.0484,-0.0575,-0.065,-0.0733,-0.0791,-0.0808,-0.0789,-0.0772,-0.0673,-0.0633,-0.0439,-0.0315,-0.0091,0.0054,0.0197,0.0227,0.0259,0.0265,0.0266,0.0193,0.0117,0.018,0,0,0,0,0,-0.0417,-0.0467,-0.0558,-0.0654,-0.0757,-0.0796,-0.0841,-0.0846,-0.0813,-0.0732,-0.0677,-0.0516,-0.0264,-0.0148,-0.0006,0.0038,0.023,0.0204,0.0263,0.0409,0.0408,0.0343,0,0,0,0,0,0,-0.0399,-0.0478,-0.0543,-0.0651,-0.072,-0.0812,-0.0849,-0.0835,-0.078,-0.072,-0.058,-0.0488,-0.0243,-0.0333,0.0001,0.0044,0.0096,0.0331,0.0333,0.041,0.0409,0.0407,0.0341,0,0,0,0,0]}]]